Regional Weather Roundup
Issued by NWS Albany, NY

Home | Current Version | Previous Version | Text Only | Print | Product List | Glossary On
Versions: 1 2 3 4 5 6 7 8 9 10 11 12 13 14 15 16 17 18 19 20 21 22 23 24 25 26 27 28 29 30 31 32 33 34 35 36 37 38 39 40 41 42 43 44 45 46 47 48 49 50
000
ASUS41 KALY 241310
RWRALY

NEW YORK STATE HOURLY WEATHER ROUNDUP
NATIONAL WEATHER SERVICE ALBANY NY
900 AM EDT THU JUL 24 2014

NOTE: "FAIR" INDICATES FEW OR NO CLOUDS BELOW 12,000 FEET WITH NO
SIGNIFICANT WEATHER AND/OR NO OBSTRUCTIONS TO VISIBILITY.

NYZ032-033-038>043-046>054-057>066-NYZ062>081-241400-
EAST


CITY           SKY/WX    TMP DP  RH WIND       PRES   REMARKS
ALBANY         PTSUNNY   68  58  70 N10       29.92R
GLENS FALLS    MOSUNNY   66  52  60 N9        29.93R
POUGHKEEPSIE   MOSUNNY   72  61  68 N13       29.87S
NEWBURGH       PTSUNNY   70  64  83 N12       29.89S
MONTGOMERY     CLOUDY    70  63  78 VRB3      29.88S
WHITE PLAINS   CLOUDY    71  62  73 N15       29.86R
ISLIP          PTSUNNY   76  63  64 N14       29.82R
NEW YORK CITY  CLOUDY    74  64  71 N10       29.85R
CENTRAL PARK   PTSUNNY   74  64  71 VRB3      29.88R
$$

NYZ005>009-017-018-044>046-055-056-241400-
CENTRAL


CITY           SKY/WX    TMP DP  RH WIND       PRES   REMARKS
FULTON         MOSUNNY   64  49  57 N8        30.01R
SYRACUSE       PTSUNNY   65  52  62 VRB6      29.99S
ROME           MOSUNNY   62  52  69 N5        29.99R
ELMIRA         MOSUNNY   66  55  67 N10       29.99S
BINGHAMTON     MOSUNNY   62  54  74 N10       29.98S
MONTICELLO     MOSUNNY   64  59  82 N8        29.94S
$$

NYZ026>034-041>043-241400-
NORTH


CITY           SKY/WX    TMP DP  RH WIND       PRES   REMARKS
WATERTOWN      MOSUNNY   63  47  55 N9        30.01S
FORT DRUM      NOT AVBL
MASSENA        SUNNY     61  49  64 N9        30.00R
SARANAC LAKE   PTSUNNY   58  50  75 VRB5      29.97S
PLATTSBURGH    MOSUNNY   64  49  57 N13       29.95S
$$

NYZ001>004-010>016-019>021-241400-
WEST


CITY           SKY/WX    TMP DP  RH WIND       PRES   REMARKS
NIAGARA FALLS  MOSUNNY   65  51  60 NE10      30.06R
BUFFALO        MOSUNNY   64  48  56 NE12      30.06R
DUNKIRK        CLOUDY    64  52  64 NE14      30.06R
JAMESTOWN      CLOUDY    59  54  82 N7        30.06R
WELLSVILLE     PTSUNNY   64  53  67 N7        30.05S
ROCHESTER      PTSUNNY   64  48  56 NE13      30.05R
PENN YAN       CLOUDY    64  54  69 VRB5      30.02R
$$

             KEY
       WCI = WIND CHILL INDEX
       VSB = VISIBILITY
       HX  = HEAT INDEX
$$



USA.gov is the U.S. government's official web portal to all federal, state and local government web resources and services.